Flag for Canada Weather past 2 weeks in Abbotsford, British Columbia, Canada

Now
86 °F

Scattered clouds.


Feels Like: 85 °F
Forecast: 62 / 87 °F
Wind: 12 mph from Southwest

Location: Abbotsford

Current Time: Jul 2, 2015 at 8:02:05 PM

Latest Report: Jul 2, 2015 at 7:00 PM


Visibility: 30 mi

Pressure: 29.93 "Hg

Humidity: 40%

Dew point: 59 °F

Location of AbbotsfordLocation

Historic Weather in Abbotsford — Graph

°F

Abbotsford temperature yesterday

Maximum temperature yesterday: 90 °F (at 5:00 PM)
Minimum temperature yesterday: 61 °F (at 2:00 AM)
Average temperature yesterday: 75 °F

Past Weeks' High & Low Weather Summary

 TemperatureHumidityPressure
High90 °F (Jun 27, 4:00 PM)100% (Jun 18, 9:00 PM)30.16 "Hg (Jun 18, 9:00 PM)
Low50 °F (Jun 20, 4:00 AM)30% (Jun 21, 12:00 PM)29.88 "Hg (Jun 21, 1:00 PM)
Average69 °F62%30.02 "Hg
* Reported Jun 17 6:00 PM — Jul 2 6:00 PM, Abbotsford, Weather by CustomWeather, © 2015

Note: Actual official high and low records may vary slightly from our data, if they occured in-between our weather recording intervals... More about our weather records

Advertising

Abbotsford weather history for previous 24 hours

 ConditionsComfort  
Time TempWeatherWind HumidityBarometerVisibility
6:00 PM
Thu, Jul 2
88 °FPassing clouds.12 mph40%29.94 "Hg30 mi
5:00 PM88 °FScattered clouds.12 mph43%29.95 "Hg30 mi
4:00 PM88 °FScattered clouds.12 mph43%29.96 "Hg30 mi
3:00 PM88 °FPartly sunny.8 mph43%29.97 "Hg30 mi
2:00 PM86 °FPassing clouds.15 mph43%29.99 "Hg30 mi
1:00 PM86 °FSunny.10 mph49%30.00 "Hg30 mi
12:00 PM82 °FSunny.7 mph51%30.00 "Hg30 mi
11:00 AM81 °FSunny.6 mph51%30.01 "Hg30 mi
10:00 AM79 °FSunny.3 mph58%30.02 "Hg30 mi
9:00 AM73 °FSunny.3 mph69%30.02 "Hg30 mi
8:00 AM70 °FSunny.3 mph78%30.02 "Hg30 mi
7:00 AM66 °FPassing clouds.5 mph83%30.02 "Hg30 mi
6:00 AM63 °FPassing clouds.3 mph83%30.00 "Hg30 mi
5:00 AM63 °FPassing clouds.3 mph83%29.98 "Hg30 mi
4:00 AM64 °FClear.2 mph83%29.98 "Hg15 mi
3:00 AM66 °FClear.No wind78%29.97 "Hg15 mi
2:00 AM64 °FClear.No wind83%29.97 "Hg15 mi
1:00 AM68 °FClear.No wind73%29.97 "Hg15 mi
12:00 AM68 °FClear.2 mph78%29.97 "Hg15 mi
11:00 PM
Wed, Jul 1
68 °FClear.3 mph78%29.96 "Hg15 mi
10:00 PM72 °FSunny.8 mph69%29.95 "Hg15 mi
9:00 PM77 °FSunny.8 mph61%29.94 "Hg30 mi
8:00 PM84 °FSunny.9 mph45%29.94 "Hg30 mi
Weather by CustomWeather, © 2015

See weather overviewHow to use our weather pages